• In Deutschland
  • Länderverzeichnis
  • Für 7 Tage
  • Wassertemperatur
  • Satellitenkarten
  • Wetterkarte
  • Widgets
  • user-avatar
    Anmelden

    Stündliche Wetter Chaschuri

    Heute, 17 Oktober, Mittwoch

    Zeit Temperatur Niederschläge Wind Luftdruck Luftfeuchtigkeit
    00:00 +7°C° 0 mm 2 m/S 619 mmHg 72%
    01:00 +7°C° 0 mm 2 m/S 618 mmHg 71%
    02:00 +6°C° 0 mm 2 m/S 618 mmHg 71%
    03:00 +7°C° 0 mm 3 m/S 618 mmHg 71%
    04:00 +5°C° 0 mm 3 m/S 618 mmHg 72%
    05:00 +6°C° 0 mm 2 m/S 618 mmHg 72%
    06:00 +5°C° 0 mm 2 m/S 618 mmHg 73%
    07:00 +7°C° 0 mm 2 m/S 619 mmHg 65%
    08:00 +10°C° 0 mm 2 m/S 619 mmHg 58%
    09:00 +13°C° 0 mm 2 m/S 620 mmHg 52%
    10:00 +14°C° 0 mm 2 m/S 620 mmHg 46%
    11:00 +16°C° 0 mm 2 m/S 621 mmHg 41%
    12:00 +17°C° 0 mm 2 m/S 621 mmHg 36%
    13:00 +17°C° 0 mm 2 m/S 621 mmHg 35%
    14:00 +17°C° 0 mm 2 m/S 620 mmHg 35%
    15:00 +18°C° 0 mm 2 m/S 620 mmHg 34%
    16:00 +15°C° 0 mm 2 m/S 619 mmHg 42%
    17:00 +13°C° 0 mm 2 m/S 619 mmHg 49%
    18:00 +10°C° 0 mm 2 m/S 618 mmHg 57%
    19:00 +9°C° 0 mm 2 m/S 618 mmHg 60%
    20:00 +9°C° 0 mm 2 m/S 618 mmHg 62%
    21:00 +8°C° 0 mm 2 m/S 618 mmHg 65%
    22:00 +7°C° 0 mm 2 m/S 617 mmHg 65%
    23:00 +7°C° 0 mm 2 m/S 617 mmHg 65%

    Morgen, 18 Oktober, Donnerstag

    Zeit Temperatur Niederschläge Wind Luftdruck Luftfeuchtigkeit
    00:00 +7°C° 0 mm 2 m/S 617 mmHg 65%
    01:00 +6°C° 0 mm 2 m/S 617 mmHg 65%
    02:00 +6°C° 0 mm 2 m/S 617 mmHg 64%
    03:00 +6°C° 0 mm 2 m/S 616 mmHg 64%
    04:00 +6°C° 0 mm 2 m/S 616 mmHg 63%
    05:00 +5°C° 0 mm 2 m/S 616 mmHg 63%
    06:00 +5°C° 0 mm 2 m/S 616 mmHg 62%
    07:00 +7°C° 0 mm 2 m/S 616 mmHg 55%
    08:00 +10°C° 0 mm 2 m/S 617 mmHg 48%
    09:00 +13°C° 0 mm 2 m/S 618 mmHg 41%
    10:00 +15°C° 0 mm 2 m/S 619 mmHg 36%
    11:00 +17°C° 0 mm 2 m/S 619 mmHg 31%
    12:00 +18°C° 0 mm 2 m/S 620 mmHg 25%
    13:00 +18°C° 0 mm 2 m/S 619 mmHg 25%
    14:00 +19°C° 0 mm 2 m/S 619 mmHg 25%
    15:00 +19°C° 0 mm 2 m/S 619 mmHg 25%
    16:00 +16°C° 0 mm 2 m/S 618 mmHg 32%
    17:00 +14°C° 0 mm 1 m/S 617 mmHg 39%
    18:00 +11°C° 0 mm 1 m/S 616 mmHg 45%
    19:00 +10°C° 0 mm 2 m/S 616 mmHg 48%
    20:00 +9°C° 0 mm 2 m/S 617 mmHg 50%
    21:00 +8°C° 0 mm 2 m/S 617 mmHg 53%
    22:00 +8°C° 0 mm 2 m/S 616 mmHg 55%
    23:00 +8°C° 0 mm 2 m/S 616 mmHg 57%

    übermorgen, 19 Oktober, Freitag

    Zeit Temperatur Niederschläge Wind Luftdruck Luftfeuchtigkeit
    00:00 +7°C° 0 mm 2 m/S 616 mmHg 59%
    01:00 +7°C° 0 mm 2 m/S 616 mmHg 61%
    02:00 +7°C° 0 mm 2 m/S 616 mmHg 63%
    03:00 +6°C° 0 mm 2 m/S 616 mmHg 65%
    04:00 +6°C° 0 mm 2 m/S 616 mmHg 66%
    05:00 +6°C° 0 mm 2 m/S 616 mmHg 67%
    06:00 +6°C° 0 mm 2 m/S 615 mmHg 68%
    07:00 +8°C° 0 mm 2 m/S 616 mmHg 61%
    08:00 +10°C° 0 mm 2 m/S 617 mmHg 54%
    09:00 +13°C° 0 mm 2 m/S 618 mmHg 47%
    10:00 +14°C° 0 mm 2 m/S 618 mmHg 43%
    11:00 +16°C° 0 mm 2 m/S 619 mmHg 38%
    12:00 +18°C° 0 mm 2 m/S 619 mmHg 33%
    13:00 +18°C° 0 mm 2 m/S 619 mmHg 33%
    14:00 +18°C° 0 mm 2 m/S 619 mmHg 33%
    15:00 +18°C° 0 mm 2 m/S 618 mmHg 34%
    16:00 +16°C° 0 mm 2 m/S 618 mmHg 42%
    17:00 +14°C° 0 mm 1 m/S 617 mmHg 50%
    18:00 +11°C° 0 mm 1 m/S 616 mmHg 58%
    19:00 +11°C° 0 mm 1 m/S 616 mmHg 59%
    20:00 +10°C° 0 mm 1 m/S 616 mmHg 60%
    21:00 +10°C° 0 mm 1 m/S 616 mmHg 61%
    22:00 +8°C° 0 mm 2 m/S 616 mmHg 61%
    23:00 +8°C° 0 mm 2 m/S 616 mmHg 60%

    20 Oktober, Samstag

    Zeit Temperatur Niederschläge Wind Luftdruck Luftfeuchtigkeit
    00:00 +8°C° 0 mm 2 m/S 616 mmHg 60%
    01:00 +7°C° 0 mm 2 m/S 616 mmHg 59%
    02:00 +7°C° 0 mm 2 m/S 615 mmHg 59%
    03:00 +7°C° 0 mm 2 m/S 615 mmHg 59%
    04:00 +7°C° 0 mm 2 m/S 615 mmHg 59%
    05:00 +6°C° 0 mm 2 m/S 615 mmHg 60%
    06:00 +6°C° 0 mm 2 m/S 615 mmHg 60%
    07:00 +8°C° 0 mm 2 m/S 616 mmHg 55%
    08:00 +12°C° 0 mm 2 m/S 617 mmHg 51%
    09:00 +14°C° 0 mm 2 m/S 617 mmHg 46%
    10:00 +15°C° 0 mm 2 m/S 618 mmHg 42%
    11:00 +18°C° 0 mm 1 m/S 618 mmHg 37%
    12:00 +19°C° 0 mm 1 m/S 618 mmHg 33%
    13:00 +18°C° 0.1 mm 2 m/S 618 mmHg 34%
    14:00 +18°C° 0.1 mm 2 m/S 617 mmHg 36%
    15:00 +18°C° 0.1 mm 2 m/S 617 mmHg 37%
    16:00 +16°C° 0.1 mm 1 m/S 616 mmHg 44%
    17:00 +14°C° 0.1 mm 1 m/S 616 mmHg 52%
    18:00 +12°C° 0.1 mm 1 m/S 615 mmHg 60%
    19:00 +11°C° 0.1 mm 1 m/S 615 mmHg 61%
    20:00 +11°C° 0.1 mm 1 m/S 615 mmHg 63%
    21:00 +10°C° 0.1 mm 1 m/S 615 mmHg 64%
    22:00 +10°C° 0.1 mm 1 m/S 615 mmHg 64%
    23:00 +10°C° 0.1 mm 1 m/S 615 mmHg 65%

    21 Oktober, Sonntag

    Zeit Temperatur Niederschläge Wind Luftdruck Luftfeuchtigkeit
    00:00 +10°C° 0.1 mm 1 m/S 615 mmHg 65%
    01:00 +9°C° 0 mm 1 m/S 614 mmHg 65%
    02:00 +9°C° 0 mm 1 m/S 614 mmHg 65%
    03:00 +9°C° 0 mm 1 m/S 614 mmHg 65%
    04:00 +9°C° 0 mm 1 m/S 614 mmHg 65%
    05:00 +8°C° 0 mm 1 m/S 614 mmHg 65%
    06:00 +8°C° 0 mm 1 m/S 614 mmHg 65%
    07:00 +10°C° 0 mm 1 m/S 614 mmHg 61%
    08:00 +10°C° 0 mm 2 m/S 615 mmHg 57%
    09:00 +13°C° 0 mm 2 m/S 615 mmHg 53%
    10:00 +14°C° 0 mm 2 m/S 616 mmHg 50%
    11:00 +15°C° 0 mm 2 m/S 616 mmHg 47%
    12:00 +17°C° 0 mm 2 m/S 616 mmHg 44%
    13:00 +16°C° 0.2 mm 2 m/S 616 mmHg 46%
    14:00 +16°C° 0.2 mm 2 m/S 615 mmHg 48%
    15:00 +15°C° 0.2 mm 2 m/S 615 mmHg 50%
    16:00 +14°C° 0.2 mm 2 m/S 614 mmHg 57%
    17:00 +12°C° 0.2 mm 1 m/S 614 mmHg 65%
    18:00 +11°C° 0.2 mm 1 m/S 613 mmHg 72%
    19:00 +10°C° 0.2 mm 1 m/S 613 mmHg 73%
    20:00 +10°C° 0.2 mm 1 m/S 613 mmHg 75%
    21:00 +10°C° 0.2 mm 1 m/S 613 mmHg 77%
    22:00 +8°C° 0.1 mm 2 m/S 613 mmHg 76%
    23:00 +8°C° 0.1 mm 2 m/S 613 mmHg 76%

    22 Oktober, Montag

    Zeit Temperatur Niederschläge Wind Luftdruck Luftfeuchtigkeit
    00:00 +8°C° 0.1 mm 2 m/S 613 mmHg 76%
    01:00 +7°C° 0 mm 2 m/S 613 mmHg 76%
    02:00 +7°C° 0 mm 2 m/S 613 mmHg 76%
    03:00 +7°C° 0 mm 2 m/S 612 mmHg 76%
    04:00 +6°C° 0 mm 2 m/S 612 mmHg 76%
    05:00 +6°C° 0 mm 2 m/S 612 mmHg 76%
    06:00 +6°C° 0 mm 2 m/S 612 mmHg 77%
    07:00 +7°C° 0 mm 2 m/S 613 mmHg 71%
    08:00 +9°C° 0 mm 2 m/S 614 mmHg 66%
    09:00 +11°C° 0 mm 3 m/S 615 mmHg 60%
    10:00 +12°C° 0 mm 3 m/S 615 mmHg 56%
    11:00 +13°C° 0 mm 3 m/S 616 mmHg 52%
    12:00 +14°C° 0 mm 3 m/S 616 mmHg 47%
    13:00 +16°C° 0.1 mm 3 m/S 616 mmHg 46%
    14:00 +16°C° 0.1 mm 3 m/S 616 mmHg 46%
    15:00 +16°C° 0.1 mm 2 m/S 616 mmHg 45%
    16:00 +14°C° 0.1 mm 2 m/S 616 mmHg 52%
    17:00 +12°C° 0.1 mm 1 m/S 615 mmHg 60%
    18:00 +10°C° 0.1 mm 1 m/S 615 mmHg 68%
    19:00 +10°C° 0 mm 1 m/S 615 mmHg 69%
    20:00 +9°C° 0 mm 1 m/S 615 mmHg 70%
    21:00 +9°C° 0 mm 1 m/S 615 mmHg 71%
    22:00 +9°C° 0 mm 1 m/S 615 mmHg 71%
    23:00 +8°C° 0 mm 1 m/S 615 mmHg 71%
    Mehr zeigen